Clinton-Sherman, OK

5:44 PM CST on December 14, 2017 (GMT -0600)
Clinton-Sherman

Weather History for KCSM - March, 2014

Change the Weather History Date:

Thursday, March 27, 2014

  Actual Average Record
Temperature  
Mean Temperature 66 °F -  
Max Temperature 78 °F 62 °F 78 °F (2008)
Min Temperature 54 °F 41 °F 24 °F (2009)
Growing Degree Days 16 (Base 50)    
Moisture  
Dew Point 42 °F    
Average Humidity 53    
Maximum Humidity 93    
Minimum Humidity 16    
Precipitation  
Precipitation 0.00 in - - ()
Sea Level Pressure  
Sea Level Pressure 29.61 in    
Wind  
Wind Speed 24 mph (SW)    
Max Wind Speed 33 mph    
Max Gust Speed 41 mph    
Visibility 10 miles    
Events      
Averages and records for this station are not official NWS values.
T = Trace of Precipitation, MM = Missing Value Source: NWS Daily Summary

Daily Weather History Graph

Daily Weather History Graph

Search for Another Location

Airport or City:

Trip Planner

Search our weather history database for the weather conditions in past years. The results will help you decide how hot, cold, wet, or windy it might be!

Date:

Astronomy

Mar. 27, 2014 Rise Set
Actual Time 7:30 AM CDT 7:54 PM CDT
Civil Twilight 7:05 AM CDT 8:19 PM CDT
Nautical Twilight 6:35 AM CDT 8:49 PM CDT
Astronomical Twilight 6:04 AM CDT 9:20 PM CDT
Moon 5:15 AM CDT (3/27) 4:49 PM CDT (3/27)
Length of Visible Light 13h 14m
Length of Day
12h 23m
Waning Crescent, 13% of the Moon is Illuminated
Mar 27
Waning Crescent
Mar 30
New
Apr 7
First Quarter
Apr 15
Full
Apr 22
Last Quarter

Hourly Weather History & Observations

Time (CDT) Temp. Dew Point Humidity Pressure Visibility Wind Dir Wind Speed Gust Speed Precip Events Conditions
12:53 AM 55.9 °F 51.1 °F 84% 29.61 in 10.0 mi South 33.4 mph 41.4 mph N/A   Overcast
1:53 AM 55.9 °F 52.0 °F 87% 29.60 in 10.0 mi South 27.6 mph 39.1 mph N/A   Overcast
2:53 AM 57.0 °F 52.0 °F 83% 29.59 in 10.0 mi South 28.8 mph 36.8 mph N/A   Overcast
3:53 AM 57.0 °F 53.1 °F 87% 29.55 in 10.0 mi South 32.2 mph 39.1 mph N/A   Overcast
4:53 AM 57.9 °F 53.1 °F 84% 29.54 in 10.0 mi South 27.6 mph 39.1 mph N/A   Overcast
5:53 AM 57.9 °F 53.1 °F 84% 29.55 in 10.0 mi South 25.3 mph 38.0 mph N/A   Overcast
6:53 AM 57.0 °F 53.1 °F 87% 29.59 in 10.0 mi South 23.0 mph 31.1 mph N/A   Mostly Cloudy
7:03 AM 57.2 °F 53.6 °F 88% 29.61 in 10.0 mi South 23.0 mph 31.1 mph N/A   Mostly Cloudy
7:53 AM 54.0 °F 52.0 °F 93% 29.60 in 10.0 mi South 16.1 mph - N/A   Clear
8:53 AM 57.9 °F 52.0 °F 81% 29.59 in 10.0 mi South 20.7 mph 26.5 mph N/A   Clear
9:53 AM 60.1 °F 50.0 °F 69% 29.58 in 10.0 mi SSW 25.3 mph 32.2 mph 0.00 in   Clear
10:53 AM 64.9 °F 44.1 °F 47% 29.58 in 10.0 mi SW 24.2 mph 32.2 mph N/A   Clear
11:53 AM 71.1 °F 30.9 °F 23% 29.58 in 10.0 mi WSW 28.8 mph 36.8 mph N/A   Clear
12:53 PM 73.0 °F 30.0 °F 20% 29.58 in 10.0 mi West 21.9 mph 31.1 mph N/A   Clear
1:53 PM 75.9 °F 27.0 °F 16% 29.57 in 10.0 mi West 25.3 mph 33.4 mph N/A   Clear
2:53 PM 77.0 °F 28.0 °F 17% 29.57 in 9.0 mi West 21.9 mph 31.1 mph N/A   Mostly Cloudy
3:41 PM 75.2 °F 26.6 °F 17% 29.62 in 8.0 mi WSW 13.8 mph 23.0 mph N/A   Overcast
3:53 PM 77.0 °F 27.0 °F 16% 29.58 in 8.0 mi WSW 16.1 mph 27.6 mph N/A   Overcast
4:19 PM 75.2 °F 35.6 °F 24% 29.63 in 10.0 mi NW 17.3 mph 25.3 mph N/A   Mostly Cloudy
4:53 PM 75.9 °F 35.1 °F 23% 29.58 in 10.0 mi WNW 13.8 mph - N/A   Clear
5:53 PM 73.9 °F 37.9 °F 27% 29.60 in 10.0 mi NNW 11.5 mph - N/A   Clear
6:53 PM 71.1 °F 37.9 °F 30% 29.62 in 10.0 mi North 11.5 mph - N/A   Clear
7:53 PM 64.9 °F 39.0 °F 39% 29.65 in 10.0 mi NE 9.2 mph - N/A   Clear
8:53 PM 57.0 °F 37.9 °F 49% 29.70 in 10.0 mi NNE 9.2 mph - N/A   Clear
9:53 PM 55.0 °F 37.0 °F 51% 29.74 in 10.0 mi North 10.4 mph - N/A   Clear
10:53 PM 54.0 °F 37.0 °F 53% 29.77 in 10.0 mi North 9.2 mph - N/A   Clear
11:53 PM 54.0 °F 37.0 °F 53% 29.78 in 10.0 mi NNE 13.8 mph - N/A   Clear